sat.trackr.live / text

‹ back to catalog

ONEWEB-0046

NORAD 45447 · 2020-020Z

PAYLOAD ACTIVE UNKNOWN

§ Identity

Operator
Country
UK
Launch date
2020-03-21
Launch site
TYMSC
Launch vehicle
Mass (kg)
RCS (m²)

Purposes: comms

External: N2YO · Heavens-Above · Gunter

§ Orbital elements

Epoch: 2026-09-19T14:24:35.353152Z

Period
109.81 min
Inclination
87.8967°
Eccentricity
0.0002018
Mean motion
13.11414576 rev/d
Perigee alt
1,216.2 km
Apogee alt
1,219.2 km
Semi-major
7,595.8 km
B*
-4.6958e-4
RAAN
2.3000°
Arg perigee
106.4013°
Mean anomaly
253.7337°
Rev number
31,498

§ Raw data

ONEWEB-00461 45447U 20020Z   26262.60040918 -.00000154  00000+0 -46958-3 0  99902 45447  87.8967   2.3000 0002018 106.4013 253.7337 13.11414576314980

JSON: /api/v1/satellites/45447 · /tle

For live sub-satellite position, see the globe view (requires WebGL).

§ Visibility from observer

Set your observer location to see the next 7 days of passes ≥ 10°. The values pass through the URL so the page stays shareable.

No JS? Fill the form by hand. The geolocation button needs JavaScript.